Overview Statistics Trail Chart Weather Telemetry Raw packets
 

This is the latest recevied weather packets stored in our database for station/object WA6OOO. If no packets are shown the sender has not sent any weather packets the latest 10 day(s).

<< 8 9 10 11 12 13 14 >>
Time Temp. Humidity Pressure Rain* Wind** Luminosity Snow
1788620829 21.67° C 64% 1017.4 hPa 0 mm - 143 W/m² -
1788620529 21.11° C 65% 1017.4 hPa 0 mm - 131 W/m² -
1788620226 20.56° C 66% 1017.4 hPa 0 mm - 34 W/m² -
1788619921 20.56° C 66% 1017.3 hPa 0 mm - 34 W/m² -
1788619621 20.56° C 67% 1017.4 hPa 0 mm - 36 W/m² -
1788619320 20.56° C 68% 1017.4 hPa 0 mm - 31 W/m² -
1788619020 20° C 68% 1017.3 hPa 0 mm - 33 W/m² -
1788618719 20° C 70% 1017.2 hPa 0 mm - 31 W/m² -
1788618418 19.44° C 71% 1017.4 hPa 0 mm - 34 W/m² -
1788618114 19.44° C 72% 1017.2 hPa 0 mm - 52 W/m² -
1788617814 18.89° C 73% 1017.1 hPa 0 mm - 35 W/m² -
1788617510 18.89° C 74% 1016.9 hPa 0 mm - 38 W/m² -
1788617206 18.89° C 75% 1017 hPa 0 mm - 31 W/m² -
1788616904 18.89° C 75% 1016.9 hPa 0 mm - 19 W/m² -
1788616600 18.33° C 76% 1016.6 hPa 0 mm - 19 W/m² -
1788616296 18.33° C 76% 1016.9 hPa 0 mm - 15 W/m² -
1788615990 18.33° C 76% 1016.7 hPa 0 mm - 10 W/m² -
1788615688 18.33° C 77% 1016.8 hPa 0 mm - 7 W/m² -
1788615385 18.33° C 77% 1016.6 hPa 0 mm - 4 W/m² -
1788615085 18.33° C 77% 1016.3 hPa 0 mm - 2 W/m² -
1788614785 18.33° C 76% 1016.4 hPa 0 mm - 1 W/m² -
1788614480 18.33° C 76% 1016.5 hPa 0 mm - 1 W/m² -
1788614175 18.33° C 77% 1016.4 hPa 0 mm - 0 W/m² -
1788613870 18.33° C 78% 1016.5 hPa 0 mm - 0 W/m² -
1788613569 18.33° C 79% 1016.5 hPa 0 mm - 0 W/m² -

* Rain latest hour (hover to see other rain measurements)
** Current wind speed in m/s (hover to see current wind gust speed)